Location: Caltech
(34.1382°N, 118.1253°W)
Time: 02:09:59
(UTC-07:00)

OPAL - Visible Passes

Search period start: 02 September 2014 00:00
Search period end: 12 September 2014 00:00
Orbit: 745 x 796 km, 100.2° (Epoch: 01 September)

Date Brightness Start Highest point End Pass type
(mag) Time Alt. Az. Time Alt. Az. Time Alt. Az.
02 Sep 7.5 04:34:04 10° SSE 04:39:07 85° ENE 04:44:16 10° NNW visible
03 Sep 8.9 03:59:27 10° SE 04:04:04 37° ENE 04:08:45 10° N visible
03 Sep 8.6 05:39:10 10° SSW 05:42:59 22° W 05:46:52 10° NW visible
04 Sep 10.2 03:26:01 10° ESE 03:29:12 17° ENE 03:32:25 10° NNE visible
04 Sep 7.6 05:02:43 10° S 05:07:37 50° WSW 05:12:37 10° NNW visible
05 Sep 7.7 04:27:23 10° SSE 04:32:25 69° ENE 04:37:33 10° N visible
06 Sep 9.3 03:53:01 10° SE 03:57:25 30° ENE 04:01:52 10° N visible
06 Sep 8.4 05:31:58 10° SSW 05:36:13 27° W 05:40:32 10° NW visible
07 Sep 10.4 03:20:04 10° E 03:22:36 14° ENE 03:25:10 10° NNE visible
07 Sep 7.4 04:55:51 10° S 05:00:53 63° WSW 05:06:00 10° NNW visible
08 Sep 8.1 04:20:46 10° SSE 04:25:44 56° ENE 04:30:47 10° N visible
08 Sep 9.1 06:02:17 10° SW 06:04:54 14° W 06:07:33 10° WNW visible
09 Sep 9.6 03:46:40 10° ESE 03:50:47 25° ENE 03:54:56 10° NNE visible
09 Sep 8.1 05:24:53 10° SSW 05:29:27 33° W 05:34:05 10° NW visible
10 Sep 10.6 03:14:30 10° ENE 03:16:01 11° ENE 03:17:33 10° NE visible
10 Sep 7.4 04:49:04 10° SSE 04:54:10 79° WSW 04:59:21 10° NNW visible
11 Sep 8.5 04:14:13 10° SE 04:19:04 45° ENE 04:23:59 10° N visible
11 Sep 8.9 05:54:43 10° SW 05:58:06 18° W 06:01:32 10° NW visible
